THORAD AGENA D DEB

Satellite information

Favourite Embed

Satellite Type and Status

DEBRISIN ORBIT

Key statistics

Satellite THORAD AGENA D DEB at a glance.

Uptime

20529

Days in orbit

Revolutions

≈ 14.2

Per day

Orbit

LEO

Low Earth Orbit

Inclination

70.1

Latest

Satellite identification and parameters

Extended collection of information and parameters for THORAD AGENA D DEB.

Object identification

Identified? True

Debris? True

Object name: THORAD AGENA D DEB

International designator: 1969-082CY

Object number (NORAD): 4249

Object ID (CCSDS): 4249

Country: UNITED STATES OF AMERICA (US)

Current information (Y/N): Y

RCS size: SMALL

Orbital parameters

Period: 101.19 minutes

Inclination: 70.0625 deg

SMA: 7193.119 km

Apoapsis: 854.623 km

Periapsis: 775.346 km

RAAN: 59.0284 deg

Eccentricy: 0.00551063

Argument of periapsis: 144.1143 deg

Mean anomaly: 216.37 deg

Mean motion: 14.2307199 rev/day

Mean motion (dot): 0.00001086 rev/day2

B* drag term: 0.00049806319 1/REarth

Two-line elements (TLE)

Creation date: Dec. 12, 2025, 10:14 a.m.

Reference frame: TEME

Reference center: EARTH

Epoch: Dec. 12, 2025, 7:02 a.m. UTC

TLE line 0: 0 THORAD AGENA D DEB

TLE line 1: 1 04249U 69082CY 25346.29329977 .00001086 00000-0 49806-3 0 9997

TLE line 2: 2 04249 70.0625 59.0284 0055106 144.1143 216.3700 14.23071990895393

Live tracking on map

Real-time ground track for satellite THORAD AGENA D DEB.

In-orbit conjunctions

A list of the most updated potential collisions computed for object THORAD AGENA D DEB.

Target Orbit TCA Probability of collision Miss distance Type
COSMOS 807 LEO 2025-12-13 04:31:50 0.00035218 540.0 (m) PAYLOAD
CZ-6A DEB LEO 2025-10-16 04:49:27 0.0001914784 263.0 (m) DEBRIS
DMSP 5D-2 F13 DEB SSO 2025-06-10 09:23:40 0.0001080683 303.0 (m) DEBRIS
DMSP 5D-2 F13 DEB SSO 2024-11-16 13:38:37 0.0001446657 633.0 (m) DEBRIS

Associated space launch

Poppy was the follow-on ELINT system, which succeeded the Grab ELINT satellite system.

THORAD AGENA D DEB was lifted into orbit during the mission ‘Thorad SLV-2G Agena D | Poppy 8A,B,C,D’, on board a Thorad SLV-2G Agena D space rocket.

The launch took place on Sept. 30, 1969, 1:40 p.m. from Space Launch Complex 1W.

For more information about the launch, click the button.

Launch to space Thorad SLV-2G Agena D | Poppy 8A,B,C,D
Thorad SLV-2G Agena D | Poppy 8A,B,C,D

Agency: N/A

Status: Launch Successful

Launch date: Sept. 30, 1969, 1:40 p.m. UTC

Rocket: Thorad SLV-2G Agena D

Launch pad: Space Launch Complex 1W

Location: Vandenberg SFB, CA, USA

...

Latest news about this satellite

There are no fresh news available about this satellite. Check back as we update our databases every day.


Newsletter sign-up

Weekly statistics, charts and insights to help you stay on top of the space industry.